Hors Challenge

La Corrida De Jodoigne (5.00 km)

samedi 05 octobre 2019

Vous pouvez trouver Le classement original sur : http://ultratiming.be  
 
LA CORRIDA DE JODOIGNE
DISTANCE : 5.41 km
samedi 05 octobre 2019
 
Place dos NOM Catégorie Pl/cat temps temps/km Vitesse
01:00:00              
1 3619 MATHY JEAN JACQUES SEH 1 0:20:25 03:46 15.90
2 3427 DAIX SIMON SEH 2 0:20:26 03:47 15.89
3 3637 FADDA ALEXIS ESPH 1 0:20:40 03:49 15.71
4 3727 PASTEELS JOHAN SEH 3 0:20:49 03:51 15.59
5 3709 LUYCRX ANTOINE ESPH 2 0:20:55 03:52 15.52
6 3518 PINON ANTONIN ESPH 3 0:21:27 03:58 15.13
7 3471 HOTTOIS AÄRON ESPH 4 0:21:30 03:58 15.10
8 3656 DESIRANT ALEXANDRE V1H 1 0:21:41 04:00 14.97
9 3403 BARBIEUX OLIVIER V1H 2 0:21:56 04:03 14.80
10 3401 BARBIEUX JULIEN ESPH 5 0:21:57 04:03 14.79
11 3071 VAN RUYMBEKE THOMAS ESPH 6 0:21:57 04:03 14.79
12 3528 SCHREURS SÉBASTIEN V1H 3 0:22:44 04:12 14.28
13 3700 COX BENOIT SEH 4 0:22:49 04:13 14.23
14 3469 HERMAND GUILLAUME SEH 5 0:22:57 04:15 14.14
15 3466 HANON BAPTISTE ESPH 7 0:23:16 04:18 13.95
16 3712 BIOT CYRIL ESPH 8 0:23:24 04:19 13.87
17 3436 DECAMPS NATHAN ESPH 9 0:24:09 04:28 13.44
18 3714 HUCORNE PIERRE-YVES V1H 4 0:24:09 04:28 13.44
19 3533 TAILLEBUIS ARGAN ESPH 10 0:24:10 04:28 13.43
20 3715 DECHANY ROMAIN SEH 6 0:24:19 04:30 13.35
21 3422 COURTON MAXIMILIEN ESPH 11 0:24:36 04:33 13.20
22 3465 HANNAERT EMILE ESPH 12 0:24:40 04:34 13.16
23 3686 BOUVIER-GAZ YOHANN SEH 7 0:24:45 04:34 13.12
24 3649 PIRAUX ELISE SEF 1 0:24:50 04:35 13.07
25 3483 LEEMANS LOÏC ESPH 13 0:24:55 04:36 13.03
26 3543 VANHOVE EDOUARD ESPH 14 0:24:55 04:36 13.03
27 3535 THEYS MAXIME ESPH 15 0:25:17 04:40 12.84
28 3402 BARBIEUX MARGAUX ESPF 1 0:25:40 04:45 12.65
29 3667 SPILTOIR ALEXIS ESPH 16 0:25:41 04:45 12.64
30 3404 BARBIEUX ROMANE ESPF 2 0:25:43 04:45 12.62
31 3704 VANSNICK CHRISTOPHE V1H 5 0:25:44 04:45 12.61
32 3440 DEGROOT CLÉMENT ESPH 17 0:25:44 04:45 12.61
33 3476 IMOTI TRISTAN ESPH 18 0:25:47 04:46 12.59
34 3481 LANG LILIAN ESPH 19 0:25:48 04:46 12.58
35 3445 DENET GUILLAUME ESPH 20 0:26:01 04:49 12.48
36 3516 PATERNOSTRE DE LA MAIRIEU ESPH 21 0:26:07 04:50 12.43
37 3454 EL-CHARKAWI HASSAN ESPH 22 0:26:10 04:50 12.41
38 3449 DOLHEN CLÉMENT ESPH 23 0:26:11 04:50 12.40
39 3512 NOWÉ MAXIME ESPH 24 0:26:15 04:51 12.37
40 3638 LORENT JUSTIN ESPH 25 0:26:20 04:52 12.33
41 3416 BURNIAUX CLÉMENCE ESPF 3 0:26:21 04:52 12.32
42 3511 NOËL YLONA ESPF 4 0:26:21 04:52 12.32
43 3669 DENIES VIRGINIE ESPF 5 0:26:24 04:53 12.30
44 3625 LAMBEETS LINA ESPF 6 0:26:27 04:53 12.27
45 3480 LACROIX LÉO ESPH 26 0:26:29 04:54 12.26
46 3461 GILIS EUGÉNIE SEF 2 0:26:38 04:55 12.19
47 3645 SCHAYES LUCAS ESPH 27 0:26:52 04:58 12.08
48 3539 VAN DER CRUYSSEN NATHAN ESPH 28 0:26:54 04:58 12.07
49 3546 VERMEULEN ANTHONY ESPH 29 0:26:57 04:59 12.05
50 3694 DANI ADRIAN ESPH 30 0:27:00 04:59 12.02
51 3545 VERHULST THIBAULT ESPH 31 0:27:06 05:01 11.98
52 3435 DE WIN SEM ESPH 32 0:27:08 05:01 11.96
53 3556 INCONNU INCONNU SEH 8 0:27:08 05:01 11.96
54 3419 CHAKOWA LIAM ESPH 33 0:27:11 05:01 11.94
55 3538 TYBERGHIEN PABLO ESPH 34 0:27:28 05:05 11.82
56 3485 LELOUP GÉRALDINE ESPF 7 0:27:30 05:05 11.80
57 3536 TRINDADE ETHAN ESPH 35 0:27:34 05:06 11.78
58 3537 TYBERGHIEN MANUEL ESPH 36 0:27:37 05:06 11.75
59 3509 NEYTS CÉSAR ESPH 37 0:27:41 05:07 11.73
60 3728 STOFFELEN FREDERIC V1H 6 0:28:03 05:11 11.57
61 3601 DE HOERLOOSE FANNY SEF 3 0:28:04 05:11 11.57
62 3605 GYRE SOPHIE SEF 4 0:28:04 05:11 11.57
63 3691 VAN DRIESSCHE FANNY SEF 5 0:28:07 05:12 11.55
64 3663 DELVEAUX JULES ESPH 38 0:28:11 05:13 11.52
65 3515 PACE DIEGO ESPH 39 0:28:11 05:13 11.52
66 3444 DELVEAUX LÉON ESPH 40 0:28:15 05:13 11.49
67 3506 MOUSTAKAS APOSTOLOS ESPH 41 0:28:23 05:15 11.44
68 3425 DACOSSE DYLAN ESPH 42 0:28:34 05:17 11.36
69 3662 LEFEBVRE HUGO ESPH 43 0:28:35 05:17 11.36
70 3711 ANNEREL LIEVE V2F 1 0:28:41 05:18 11.32
71 3484 LELOUP BAPTISTE ESPH 44 0:28:44 05:19 11.30
72 3438 DEGEEST NELLY ESPF 8 0:28:44 05:19 11.30
73 3607 DESCHEENMAEKER DREW SEH 9 0:28:50 05:20 11.26
74 3678 DRISE CELESTIN ESPH 45 0:28:53 05:20 11.24
75 3628 PAUWELS LENTE ESPF 9 0:28:53 05:20 11.24
76 3627 VERHEYDEN STIJN V1H 7 0:28:53 05:20 11.24
77 3621 SERVAIS FANNY SEF 6 0:28:54 05:20 11.23
78 3504 MOLHANT ANNLIESE ESPF 10 0:28:54 05:20 11.23
79 3685 GARDIN MICHAEL SEH 10 0:28:56 05:21 11.22
80 3492 MALEKIAN CÉDRINE ESPF 11 0:29:02 05:22 11.18
81 3448 DEWIN NORE ESPF 12 0:29:04 05:22 11.17
82 3443 DELPERDANGE JULIE ESPF 13 0:29:04 05:22 11.17
83 3019 VAN VIWCKENROKE WILFRIED V2H 1 0:29:06 05:23 11.16
84 3429 DE BACKER MYRIAM SEF 7 0:29:07 05:23 11.15
85 3612 CODDENS LARGO ESPH 46 0:29:13 05:24 11.11
86 3508 MUGUET OSCAR ESPH 47 0:29:16 05:25 11.09
87 3549 VOGELS EVA ESPF 14 0:29:19 05:25 11.07
88 3548 VOGELS DIÉGO ESPH 48 0:29:20 05:25 11.07
89 3626 RENARD EDDY V2H 2 0:29:22 05:26 11.05
90 3550 VOGELS VINCENT V1H 8 0:29:24 05:26 11.04
91 3459 GESHTEJA EMANUEL ESPH 49 0:29:50 05:31 10.88
92 3424 DACHET BASTIEN ESPH 50 0:29:55 05:32 10.85
93 3497 MATHIAS ETHAN ESPH 51 0:29:57 05:32 10.84
94 3433 DE STREEL GORDON ESPH 52 0:30:01 05:33 10.81
95 3434 DE STREEL GREGORY SEH 11 0:30:01 05:33 10.81
96 3681 DEKEUSTER YANN ESPH 53 0:30:05 05:34 10.79
97 3507 MOUSTAKAS GEORGIOS ESPH 54 0:30:06 05:34 10.78
98 3531 SPILMONT RENÉ ESPH 55 0:30:06 05:34 10.78
99 3532 STRUYVEN CHARLOTTE SEF 8 0:30:09 05:34 10.77
100 3648 VERMEULEN MAROUSKA SEF 9 0:30:13 05:35 10.74
101 3520 RAHIER FÉLICIEN ESPH 56 0:30:20 05:36 10.70
102 3498 MAUDOUX LOÏC ESPH 57 0:30:29 05:38 10.65
103 3467 HANQUIN ROMAIN ESPH 58 0:30:29 05:38 10.65
104 3624 VAN ZANDWEGME TOM ESPH 59 0:30:33 05:39 10.63
105 3652 LEONARD GUILLAUME ESPH 60 0:30:34 05:39 10.62
106 3632 DEGREEF MILO ESPH 61 0:30:34 05:39 10.62
107 3417 CAPPELLE JACK ESPH 62 0:30:36 05:39 10.61
108 3611 ART TONY SEH 12 0:30:43 05:41 10.57
109 3426 DAISE ANGÈLE ESPF 15 0:30:51 05:42 10.52
110 3635 TYBERGHEIN MÉLANIE V1F 1 0:31:07 05:45 10.43
111 3540 VAN PARIJS VIRGINIE SEF 10 0:31:07 05:45 10.43
112 3442 DEKEUSTER LILY ESPF 16 0:31:08 05:45 10.43
113 3633 PACE SERGIO V1H 9 0:31:14 05:46 10.39
114 3411 BOQUÉ LAURENCE V1F 2 0:31:22 05:48 10.35
115 3477 JANSSENS JOSEPHINE ESPF 17 0:31:23 05:48 10.34
116 3599 MICHAUX VALÉRIE V1F 3 0:31:23 05:48 10.34
117 3522 ROBERFROID THÉO ESPH 63 0:31:30 05:49 10.31
118 3127 ZARECZ WIOLETTA V1F 4 0:31:31 05:50 10.30
119 3547 VETS MILOU SEF 11 0:31:40 05:51 10.25
120 3680 ALPESSE BLANDINE ESPF 18 0:31:48 05:53 10.21
121 3464 HALLEUX NILS ESPH 64 0:31:53 05:54 10.18
122 3665 DEGREEF AUGUSTIN ESPH 65 0:31:53 05:54 10.18
123 3502 MILTONI BANGA LILIAN ESPH 66 0:32:00 05:55 10.14
124 3623 MERMANS BÉNÉDICTE SEF 12 0:32:16 05:58 10.06
125 3640 DEGEEST CHRISTIAN V2H 3 0:32:17 05:58 10.06
126 3653 GERARD ALAIN V2H 4 0:32:18 05:58 10.05
127 3698 DEDOYARD GAELLE ESPF 19 0:32:25 05:59 10.01
128 3519 PRIEELS LUC V1H 10 0:32:32 06:01 9.98
129 3408 BERGIN ALÉNA ESPF 20 0:32:37 06:02 9.95
130 3684 NOEL BERENGER SEH 13 0:32:38 06:02 9.95
131 3696 HUBACOVA MARIANNA V1F 5 0:32:44 06:03 9.92
132 3413 BOULANGER THAÏS ESPF 21 0:32:47 06:04 9.90
133 3690 PETILLON LAURENCE V1H 11 0:32:48 06:04 9.90
134 3689 GERARD PASCAL V2H 5 0:32:48 06:04 9.90
135 3673 BATAILLE MANON SEF 13 0:33:11 06:08 9.78
136 3474 HUENS CLÉMENT ESPH 67 0:33:22 06:10 9.73
137 3697 HUBACOVA CAROLINE ESPF 22 0:33:26 06:11 9.71
138 3615 DESCAMPS AGLAE ESPF 23 0:33:26 06:11 9.71
139 3647 VERACHTERT EVAN ESPH 68 0:33:31 06:12 9.69
140 3646 VERHULST ROBIN ESPH 69 0:33:34 06:12 9.67
141 3693 ROELS STEPHANIE SEF 14 0:33:35 06:12 9.67
142 3692 DISPY BASILE ESPH 70 0:33:36 06:13 9.66
143 3675 TILLIARD YANN ESPH 71 0:33:40 06:13 9.64
144 3608 COHEUR CLAIRE ESPF 24 0:33:42 06:14 9.63
145 3482 LASSGAA ANAS ESPH 72 0:33:50 06:15 9.59
146 3661 POCHET ISABELLE V1F 6 0:33:54 06:16 9.58
147 3713 HUYSBRECHTS VINCENT V1H 12 0:33:55 06:16 9.57
148 3606 TRIBOUT LOUIS ESPH 73 0:34:02 06:17 9.54
149 3458 GÉRARD ARTHUR ESPH 74 0:34:07 06:18 9.52
150 3616 DESCAMPS ELENORE ESPF 25 0:34:10 06:19 9.50
151 3706 ELOY VALLY SEF 15 0:34:20 06:21 9.46
152 3674 HUBERT CORALIE SEF 16 0:34:24 06:21 9.44
153 3441 DEKEUSTER JADE ESPH 75 0:34:25 06:22 9.43
154 3708 WALRY ROSE ESPF 26 0:34:25 06:22 9.43
155 3495 MASSON CORALINE SEF 17 0:34:32 06:23 9.40
156 3703 DEGROOT GAETAN V1H 13 0:34:35 06:24 9.39
157 3664 LEFEBVRE JEAN-FRANCOIS V2H 6 0:34:36 06:24 9.38
158 3682 ETIENNE MARIE AMELIE V1F 7 0:34:39 06:24 9.37
159 3446 DENIS HÉLÈNE SEF 18 0:34:43 06:25 9.35
160 3407 BERGIN ADÉLAÏDE ESPF 27 0:34:44 06:25 9.35
161 3529 SLYSZEWSKI MATEUSZ ESPH 76 0:34:45 06:25 9.34
162 3526 SAUVENIERE VINCENT V2H 7 0:34:57 06:28 9.29
163 3473 HTITE RGUIG ABDELLAH ESPH 77 0:35:07 06:29 9.24
164 3541 VAN RUMBEKE JULIE ESPF 28 0:35:08 06:30 9.24
165 3493 MANDEKIS TRIANTAFYLLOS ESPH 78 0:35:11 06:30 9.23
166 3710 MORALES ISIS SEF 19 0:35:38 06:35 9.11
167 3650 BROERS AMELIE ESPF 29 0:35:42 06:36 9.09
168 3614 TSURUKAWA EMILIE SEF 20 0:36:00 06:39 9.02
169 3609 BOMBAERTS MICHAEL SEH 14 0:36:04 06:40 9.00
170 3629 CHARLIER BENOIT V1H 14 0:36:44 06:47 8.84
171 3631 VERHEYDEN MAURO ESPH 79 0:36:47 06:48 8.83
172 3500 MEYER LARA ESPF 30 0:37:04 06:51 8.76
173 3618 LEFEVRE SIMON SEH 15 0:37:05 06:51 8.75
174 3617 BERGER MELISSA SEF 21 0:37:05 06:51 8.75
175 3701 PAQUE SEVERINE V1F 8 0:37:20 06:54 8.70
176 3707 WALRY ZOÉ ESPF 31 0:37:24 06:55 8.68
177 3705 ETIENNE AUDE SEF 22 0:37:25 06:55 8.68
178 3523 ROELS JEANNE ESPF 32 0:37:27 06:55 8.67
179 3666 VAN DER LANGENBERGH ILSE V1F 9 0:37:35 06:57 8.64
180 3486 LEROY FLORENCE V2F 2 0:37:37 06:57 8.63
181 3415 BREESCH THOMAS ESPH 80 0:37:42 06:58 8.61
182 3521 ROBERFROID ALICE ESPF 33 0:37:50 07:00 8.58
183 3439 DEGEEST SANDRA SEF 23 0:38:13 07:04 8.49
184 3437 DEGEEST GUY V3H 1 0:38:13 07:04 8.49
185 3430 DE CANELLO ALICIA ESPF 34 0:38:21 07:05 8.46
186 3702 HOBE JEAN CHRISTOPHE SEH 16 0:38:31 07:07 8.43
187 3447 DEPRÉ FRED V4H 1 0:38:39 07:09 8.40
188 3423 D'HOSE MANOÉ ESPH 81 0:38:43 07:09 8.38
189 3510 NEYTS FÉLICIE ESPF 35 0:38:44 07:10 8.38
190 3409 BLUCK GAËLLE ESPF 36 0:38:44 07:10 8.38
191 3636 FLIPS ISABELLE V1F 10 0:38:45 07:10 8.38
192 3651 HANNAERT OLIVIER V1H 15 0:38:47 07:10 8.37
193 3668 SPILTOIR JEAN MARC V1H 16 0:38:52 07:11 8.35
194 3655 DONNER EMILIE SEF 24 0:38:57 07:12 8.33
195 3641 JAROSIK MILENA V1F 11 0:38:58 07:12 8.33
196 3676 HENRY CAROLINE SEF 25 0:39:16 07:15 8.27
197 3695 LECONTE SABINE SEF 26 0:39:52 07:22 8.14
198 3421 CORDIER VANESSA V1F 12 0:39:55 07:23 8.13
199 3613 BOLLE RAPHAEL V1H 17 0:39:55 07:23 8.13
200 3405 BASTIN VIRGINIE SEF 27 0:40:05 07:25 8.10
201 3552 VRANCKX JOHAN V1H 18 0:40:08 07:25 8.09
202 3644 VAN BUTSELE VALERIE V1F 13 0:40:13 07:26 8.07
203 3672 ERTVELD BERNARD V4H 2 0:40:18 07:27 8.06
204 3639 MALEKIAN CINDY ESPF 37 0:40:25 07:28 8.03
205 3414 BOVEROUX ANTOINE ESPH 82 0:40:25 07:28 8.03
206 3462 GRAMME MILAN ESPH 83 0:40:30 07:29 8.02
207 3525 ROYEZ EMILIE SEF 28 0:40:31 07:29 8.01
208 3677 HENRY SEVERINE SEF 29 0:40:32 07:30 8.01
209 3503 MIMMO RACHELE V1F 14 0:40:32 07:30 8.01
210 3634 DEVOS ISABELLE V1F 15 0:40:35 07:30 8.00
211 3499 MEULEMANS AYMERIC ESPH 84 0:40:40 07:31 7.98
212 3496 MASTRANTUONO LAETITIA V1F 16 0:40:43 07:32 7.97
213 3452 DUPONT YSALINE ESPF 38 0:40:54 07:34 7.94
214 3451 DUPONT NATHALIE V1F 17 0:40:55 07:34 7.93
215 3683 BELLIERE SYLVIE V1F 18 0:41:11 07:37 7.88
216 3679 LEROY CAROLE V2F 3 0:41:12 07:37 7.88
217 3671 WALRAVENS JULIE SEF 30 0:41:26 07:39 7.83
218 3431 DE LAMINNE CAROLINE V1F 19 0:41:29 07:40 7.83
219 3489 MALANGU KANYAMA MATTEO ESPH 85 0:41:29 07:40 7.83
220 3643 DISTELMANS JEAN CLAUDE SEH 17 0:41:30 07:40 7.82
221 3687 CAMUS LOUISE ESPF 39 0:41:32 07:41 7.82
222 3432 DE LANDTSHEER CARINE V1F 20 0:41:38 07:42 7.80
223 3657 ROSSIGNON ELSA SEF 31 0:41:44 07:43 7.78
224 3670 DROSSART LOTTE ESPF 40 0:42:32 07:52 7.63
225 3517 PEETERS KAAT ESPF 41 0:42:34 07:52 7.63
226 3524 ROUKAERTS ILSE V1F 21 0:42:35 07:52 7.62
227 3418 CEULEERS KATHLEEN V1F 22 0:42:35 07:52 7.62
228 3468 HAULOTTE NATHAN ESPF 42 0:43:00 07:57 7.55
229 3600 MALBECQ ANN V3F 1 0:43:00 07:57 7.55
230 3620 MATHY CAMILLE ESPF 43 0:43:28 08:02 7.47
231 3544 VANHOVEN CAROLINE V1F 23 0:43:39 08:04 7.44
232 3551 VOITURON ERÉVAN ESPF 44 0:44:23 08:12 7.31
233 3659 ZAMBERLAN MURIEL SEF 32 0:44:23 08:12 7.31
234 3530 SOLEIA ALDA V1F 24 0:44:43 08:16 7.26
235 3699 DOYEN LAURENCE V1H 19 0:45:13 08:21 7.18
236 3527 SCHAYES MICHEL V2H 8 0:45:13 08:21 7.18
237 3553 WILLEMS FANNY V1F 25 0:45:45 08:27 7.10
238 3658 DEPREZ VIRGINIE SEF 33 0:45:52 08:29 7.08
239 3654 BECQUEVORT NATHALIE V1F 26 0:45:52 08:29 7.08
240 3412 BOUILLON STÉPHANIE SEF 34 0:46:03 08:31 7.05
241 3491 MALCHAIRE MADELEINE V4F 1 0:47:00 08:41 6.91
242 3475 HUP SÉVERINE SEF 35 0:50:03 09:15 6.49
243 3494 MARTIN CATHY V2F 4 0:50:03 09:15 6.49
244 3688 CAMUS MARIE ESPF 45 0:58:23 10:47 5.56
               
Nos dernières videos